Year,Month,Day,Hour,Minute,Value (Times are PST for temperature in C)
2018,08,06,00,00,17.60
2018,08,06,00,01,17.60
2018,08,06,00,02,17.50
2018,08,06,00,03,17.50
2018,08,06,00,04,17.50
2018,08,06,00,05,17.50
2018,08,06,00,06,17.50
2018,08,06,00,07,17.40
2018,08,06,00,08,17.40
2018,08,06,00,09,17.40
2018,08,06,00,10,17.40
2018,08,06,00,11,17.40
2018,08,06,00,12,17.40
2018,08,06,00,13,17.40
2018,08,06,00,14,17.30
2018,08,06,00,15,17.30
2018,08,06,00,16,17.30
2018,08,06,00,17,17.30
2018,08,06,00,18,17.30
2018,08,06,00,19,17.30
2018,08,06,00,20,17.30
2018,08,06,00,21,17.30
2018,08,06,00,22,17.20
2018,08,06,00,23,17.20
2018,08,06,00,24,17.20
2018,08,06,00,25,17.20
2018,08,06,00,26,17.20
2018,08,06,00,27,17.10
2018,08,06,00,28,17.10
2018,08,06,00,29,17.10
2018,08,06,00,30,17.10
2018,08,06,00,31,17.10
2018,08,06,00,32,17.10
2018,08,06,00,33,17.10
2018,08,06,00,34,17.00
2018,08,06,00,35,17.00
2018,08,06,00,36,17.00
2018,08,06,00,37,17.00
2018,08,06,00,38,17.00
2018,08,06,00,39,17.00
2018,08,06,00,40,16.90
2018,08,06,00,41,16.90
2018,08,06,00,42,16.90
2018,08,06,00,43,16.90
2018,08,06,00,44,16.90
2018,08,06,00,45,16.90
2018,08,06,00,46,16.80
2018,08,06,00,47,16.80
2018,08,06,00,48,16.80
2018,08,06,00,49,16.80
2018,08,06,00,50,16.80
2018,08,06,00,51,16.80
2018,08,06,00,52,16.80
2018,08,06,00,53,16.80
2018,08,06,00,54,16.80
2018,08,06,00,55,16.80
2018,08,06,00,56,16.70
2018,08,06,00,57,16.70
2018,08,06,00,58,16.70
2018,08,06,00,59,16.70
2018,08,06,01,00,16.70
2018,08,06,01,01,16.70
2018,08,06,01,02,16.70
2018,08,06,01,03,16.70
2018,08,06,01,04,16.70
2018,08,06,01,05,16.70
2018,08,06,01,06,16.60
2018,08,06,01,07,16.60
2018,08,06,01,08,16.60
2018,08,06,01,09,16.60
2018,08,06,01,10,16.60
2018,08,06,01,11,16.50
2018,08,06,01,12,16.50
2018,08,06,01,13,16.50
2018,08,06,01,14,16.50
2018,08,06,01,15,16.40
2018,08,06,01,16,16.40
2018,08,06,01,17,16.40
2018,08,06,01,18,16.40
2018,08,06,01,19,16.30
2018,08,06,01,20,16.30
2018,08,06,01,21,16.30
2018,08,06,01,22,16.30
2018,08,06,01,23,16.20
2018,08,06,01,24,16.20
2018,08,06,01,25,16.10
2018,08,06,01,26,16.10
2018,08,06,01,27,16.10
2018,08,06,01,28,16.00
2018,08,06,01,29,16.00
2018,08,06,01,30,16.00
2018,08,06,01,31,15.90
2018,08,06,01,32,15.90
2018,08,06,01,33,15.90
2018,08,06,01,34,15.80
2018,08,06,01,35,15.80
2018,08,06,01,36,15.80
2018,08,06,01,37,15.80
2018,08,06,01,38,15.80
2018,08,06,01,39,15.70
2018,08,06,01,40,15.70
2018,08,06,01,41,15.70
2018,08,06,01,42,15.70
2018,08,06,01,43,15.60
2018,08,06,01,44,15.60
2018,08,06,01,45,15.60
2018,08,06,01,46,15.60
2018,08,06,01,47,15.60
2018,08,06,01,48,15.50
2018,08,06,01,49,15.50
2018,08,06,01,50,15.50
2018,08,06,01,51,15.50
2018,08,06,01,52,15.40
2018,08,06,01,53,15.40
2018,08,06,01,54,15.40
2018,08,06,01,55,15.40
2018,08,06,01,56,15.40
2018,08,06,01,57,15.30
2018,08,06,01,58,15.30
2018,08,06,01,59,15.30
2018,08,06,02,00,15.30
2018,08,06,02,01,15.30
2018,08,06,02,02,15.20
2018,08,06,02,03,15.20
2018,08,06,02,04,15.20
2018,08,06,02,05,15.20
2018,08,06,02,06,15.20
2018,08,06,02,07,15.20
2018,08,06,02,08,15.10
2018,08,06,02,09,15.10
2018,08,06,02,10,15.10
2018,08,06,02,11,15.10
2018,08,06,02,12,15.10
2018,08,06,02,13,15.00
2018,08,06,02,14,15.00
2018,08,06,02,15,15.00
2018,08,06,02,16,15.00
2018,08,06,02,17,15.00
2018,08,06,02,18,15.00
2018,08,06,02,19,14.90
2018,08,06,02,20,14.90
2018,08,06,02,21,14.90
2018,08,06,02,22,14.90
2018,08,06,02,23,14.90
2018,08,06,02,24,14.80
2018,08,06,02,25,14.80
2018,08,06,02,26,14.80
2018,08,06,02,27,14.80
2018,08,06,02,28,14.80
2018,08,06,02,29,14.80
2018,08,06,02,30,14.80
2018,08,06,02,31,14.80
2018,08,06,02,32,14.70
2018,08,06,02,33,14.70
2018,08,06,02,34,14.70
2018,08,06,02,35,14.70
2018,08,06,02,36,14.70
2018,08,06,02,37,14.70
2018,08,06,02,38,14.60
2018,08,06,02,39,14.60
2018,08,06,02,40,14.60
2018,08,06,02,41,14.60
2018,08,06,02,42,14.60
2018,08,06,02,43,14.60
2018,08,06,02,44,14.60
2018,08,06,02,45,14.50
2018,08,06,02,46,14.50
2018,08,06,02,47,14.50
2018,08,06,02,48,14.50
2018,08,06,02,49,14.50
2018,08,06,02,50,14.40
2018,08,06,02,51,14.40
2018,08,06,02,52,14.40
2018,08,06,02,53,14.40
2018,08,06,02,54,14.40
2018,08,06,02,55,14.40
2018,08,06,02,56,14.40
2018,08,06,02,57,14.30
2018,08,06,02,58,14.30
2018,08,06,02,59,14.30
2018,08,06,03,00,14.30
2018,08,06,03,01,14.30
2018,08,06,03,02,14.30
2018,08,06,03,03,14.30
2018,08,06,03,04,14.30
2018,08,06,03,05,14.30
2018,08,06,03,06,14.30
2018,08,06,03,07,14.20
2018,08,06,03,08,14.20
2018,08,06,03,09,14.20
2018,08,06,03,10,14.20
2018,08,06,03,11,14.20
2018,08,06,03,12,14.20
2018,08,06,03,13,14.20
2018,08,06,03,14,14.20
2018,08,06,03,15,14.20
2018,08,06,03,16,14.10
2018,08,06,03,17,14.10
2018,08,06,03,18,14.10
2018,08,06,03,19,14.10
2018,08,06,03,20,14.10
2018,08,06,03,21,14.10
2018,08,06,03,22,14.10
2018,08,06,03,23,14.00
2018,08,06,03,24,14.00
2018,08,06,03,25,14.00
2018,08,06,03,26,14.00
2018,08,06,03,27,14.00
2018,08,06,03,28,14.00
2018,08,06,03,29,14.00
2018,08,06,03,30,14.00
2018,08,06,03,31,14.00
2018,08,06,03,32,13.90
2018,08,06,03,33,13.90
2018,08,06,03,34,13.90
2018,08,06,03,35,13.90
2018,08,06,03,36,13.90
2018,08,06,03,37,13.90
2018,08,06,03,38,13.90
2018,08,06,03,39,13.90
2018,08,06,03,40,13.90
2018,08,06,03,41,13.90
2018,08,06,03,42,13.90
2018,08,06,03,43,13.90
2018,08,06,03,44,13.90
2018,08,06,03,45,13.90
2018,08,06,03,46,13.90
2018,08,06,03,47,13.90
2018,08,06,03,48,13.80
2018,08,06,03,49,13.80
2018,08,06,03,50,13.80
2018,08,06,03,51,13.80
2018,08,06,03,52,13.80
2018,08,06,03,53,13.80
2018,08,06,03,54,13.80
2018,08,06,03,55,13.80
2018,08,06,03,56,13.80
2018,08,06,03,57,13.80
2018,08,06,03,58,13.80
2018,08,06,03,59,13.80
2018,08,06,04,00,13.80
2018,08,06,04,01,13.80
2018,08,06,04,02,13.80
2018,08,06,04,03,13.80
2018,08,06,04,04,13.80
2018,08,06,04,05,13.80
2018,08,06,04,06,13.80
2018,08,06,04,07,13.70
2018,08,06,04,08,13.70
2018,08,06,04,09,13.70
2018,08,06,04,10,13.70
2018,08,06,04,11,13.70
2018,08,06,04,12,13.70
2018,08,06,04,13,13.70
2018,08,06,04,14,13.70
2018,08,06,04,15,13.70
2018,08,06,04,16,13.70
2018,08,06,04,17,13.70
2018,08,06,04,18,13.60
2018,08,06,04,19,13.60
2018,08,06,04,20,13.60
2018,08,06,04,21,13.60
2018,08,06,04,22,13.60
2018,08,06,04,23,13.60
2018,08,06,04,24,13.60
2018,08,06,04,25,13.60
2018,08,06,04,26,13.60
2018,08,06,04,27,13.50
2018,08,06,04,28,13.50
2018,08,06,04,29,13.50
2018,08,06,04,30,13.50
2018,08,06,04,31,13.50
2018,08,06,04,32,13.50
2018,08,06,04,33,13.50
2018,08,06,04,34,13.40
2018,08,06,04,35,13.40
2018,08,06,04,36,13.40
2018,08,06,04,37,13.40
2018,08,06,04,38,13.40
2018,08,06,04,39,13.40
2018,08,06,04,40,13.40
2018,08,06,04,41,13.40
2018,08,06,04,42,13.40
2018,08,06,04,43,13.40
2018,08,06,04,44,13.30
2018,08,06,04,45,13.40
2018,08,06,04,46,13.30
2018,08,06,04,47,13.30
2018,08,06,04,48,13.30
2018,08,06,04,49,13.30
2018,08,06,04,50,13.30
2018,08,06,04,51,13.30
2018,08,06,04,52,13.30
2018,08,06,04,53,13.30
2018,08,06,04,54,13.30
2018,08,06,04,55,13.30
2018,08,06,04,56,13.30
2018,08,06,04,57,13.30
2018,08,06,04,58,13.20
2018,08,06,04,59,13.20
2018,08,06,05,00,13.20
2018,08,06,05,01,13.20
2018,08,06,05,02,13.20
2018,08,06,05,03,13.20
2018,08,06,05,04,13.20
2018,08,06,05,05,13.20
2018,08,06,05,06,13.20
2018,08,06,05,07,13.20
2018,08,06,05,08,13.20
2018,08,06,05,09,13.20
2018,08,06,05,10,13.20
2018,08,06,05,11,13.20
2018,08,06,05,12,13.20
2018,08,06,05,13,13.20
2018,08,06,05,14,13.20
2018,08,06,05,15,13.20
2018,08,06,05,16,13.20
2018,08,06,05,17,13.10
2018,08,06,05,18,13.10
2018,08,06,05,19,13.10
2018,08,06,05,20,13.10
2018,08,06,05,21,13.10
2018,08,06,05,22,13.10
2018,08,06,05,23,13.10
2018,08,06,05,24,13.10
2018,08,06,05,25,13.10
2018,08,06,05,26,13.10
2018,08,06,05,27,13.00
2018,08,06,05,28,13.00
2018,08,06,05,29,13.00
2018,08,06,05,30,13.00
2018,08,06,05,31,13.00
2018,08,06,05,32,13.00
2018,08,06,05,33,13.00
2018,08,06,05,34,13.00
2018,08,06,05,35,12.90
2018,08,06,05,36,12.90
2018,08,06,05,37,12.90
2018,08,06,05,38,12.90
2018,08,06,05,39,12.90
2018,08,06,05,40,12.90
2018,08,06,05,41,12.90
2018,08,06,05,42,12.90
2018,08,06,05,43,12.90
2018,08,06,05,44,12.90
2018,08,06,05,45,12.80
2018,08,06,05,46,12.80
2018,08,06,05,47,12.80
2018,08,06,05,48,12.80
2018,08,06,05,49,12.80
2018,08,06,05,50,12.80
2018,08,06,05,51,12.80
2018,08,06,05,52,12.80
2018,08,06,05,53,12.80
2018,08,06,05,54,12.80
2018,08,06,05,55,12.80
2018,08,06,05,56,12.80
2018,08,06,05,57,12.70
2018,08,06,05,58,12.70
2018,08,06,05,59,12.70
2018,08,06,06,00,12.70
2018,08,06,06,01,12.70
2018,08,06,06,02,12.70
2018,08,06,06,03,12.70
2018,08,06,06,04,12.70
2018,08,06,06,05,12.70
2018,08,06,06,06,12.70
2018,08,06,06,07,12.70
2018,08,06,06,08,12.70
2018,08,06,06,09,12.70
2018,08,06,06,10,12.70
2018,08,06,06,11,12.70
2018,08,06,06,12,12.70
2018,08,06,06,13,12.70
2018,08,06,06,14,12.70
2018,08,06,06,15,12.70
2018,08,06,06,16,12.70
2018,08,06,06,17,12.60
2018,08,06,06,18,12.60
2018,08,06,06,19,12.60
2018,08,06,06,20,12.60
2018,08,06,06,21,12.60
2018,08,06,06,22,12.60
2018,08,06,06,23,12.60
2018,08,06,06,24,12.60
2018,08,06,06,25,12.60
2018,08,06,06,26,12.60
2018,08,06,06,27,12.60
2018,08,06,06,28,12.60
2018,08,06,06,29,12.60
2018,08,06,06,30,12.60
2018,08,06,06,31,12.60
2018,08,06,06,32,12.60
2018,08,06,06,33,12.60
2018,08,06,06,34,12.60
2018,08,06,06,35,12.60
2018,08,06,06,36,12.60
2018,08,06,06,37,12.60
2018,08,06,06,38,12.60
2018,08,06,06,39,12.60
2018,08,06,06,40,12.60
2018,08,06,06,41,12.60
2018,08,06,06,42,12.60
2018,08,06,06,43,12.60
2018,08,06,06,44,12.60
2018,08,06,06,45,12.60
2018,08,06,06,46,12.60
2018,08,06,06,47,12.50
2018,08,06,06,48,12.60
2018,08,06,06,49,12.50
2018,08,06,06,50,12.60
2018,08,06,06,51,12.60
2018,08,06,06,52,12.60
2018,08,06,06,53,12.60
2018,08,06,06,54,12.60
2018,08,06,06,55,12.60
2018,08,06,06,56,12.60
2018,08,06,06,57,12.60
2018,08,06,06,58,12.60
2018,08,06,06,59,12.60
2018,08,06,07,00,12.60
2018,08,06,07,01,12.60
2018,08,06,07,02,12.60
2018,08,06,07,03,12.60
2018,08,06,07,04,12.60
2018,08,06,07,05,12.60
2018,08,06,07,06,12.60
2018,08,06,07,07,12.60
2018,08,06,07,08,12.60
2018,08,06,07,09,12.60
2018,08,06,07,10,12.60
2018,08,06,07,11,12.60
2018,08,06,07,12,12.60
2018,08,06,07,13,12.60
2018,08,06,07,14,12.60
2018,08,06,07,15,12.70
2018,08,06,07,16,12.70
2018,08,06,07,17,12.70
2018,08,06,07,18,12.70
2018,08,06,07,19,12.70
2018,08,06,07,20,12.80
2018,08,06,07,21,12.80
2018,08,06,07,22,12.80
2018,08,06,07,23,12.90
2018,08,06,07,24,12.90
2018,08,06,07,25,12.90
2018,08,06,07,26,13.00
2018,08,06,07,27,13.10
2018,08,06,07,28,13.20
2018,08,06,07,29,13.20
2018,08,06,07,30,13.30
2018,08,06,07,31,13.30
2018,08,06,07,32,13.40
2018,08,06,07,33,13.50
2018,08,06,07,34,13.60
2018,08,06,07,35,13.70
2018,08,06,07,36,13.80
2018,08,06,07,37,13.90
2018,08,06,07,38,14.00
2018,08,06,07,39,14.00
2018,08,06,07,40,14.10
2018,08,06,07,41,14.20
2018,08,06,07,42,14.30
2018,08,06,07,43,14.30
2018,08,06,07,44,14.50
2018,08,06,07,45,14.60
2018,08,06,07,46,14.70
2018,08,06,07,47,14.80
2018,08,06,07,48,14.80
2018,08,06,07,49,14.90
2018,08,06,07,50,15.00
2018,08,06,07,51,15.10
2018,08,06,07,52,15.20
2018,08,06,07,53,15.20
2018,08,06,07,54,15.30
2018,08,06,07,55,15.30
2018,08,06,07,56,15.30
2018,08,06,07,57,15.30
2018,08,06,07,58,15.20
2018,08,06,07,59,15.20
2018,08,06,08,00,15.20
2018,08,06,08,01,15.10
2018,08,06,08,02,15.10
2018,08,06,08,03,15.10
2018,08,06,08,04,15.10
2018,08,06,08,05,15.10
2018,08,06,08,06,15.10
2018,08,06,08,07,15.10
2018,08,06,08,08,15.20
2018,08,06,08,09,15.30
2018,08,06,08,10,15.40
2018,08,06,08,11,15.50
2018,08,06,08,12,15.60
2018,08,06,08,13,15.70
2018,08,06,08,14,15.70
2018,08,06,08,15,15.80
2018,08,06,08,16,15.90
2018,08,06,08,17,16.00
2018,08,06,08,18,16.10
2018,08,06,08,19,16.20
2018,08,06,08,20,16.30
2018,08,06,08,21,16.40
2018,08,06,08,22,16.50
2018,08,06,08,23,16.60
2018,08,06,08,24,16.70
2018,08,06,08,25,16.80
2018,08,06,08,26,16.90
2018,08,06,08,27,16.90
2018,08,06,08,28,17.00
2018,08,06,08,29,17.10
2018,08,06,08,30,17.20
2018,08,06,08,31,17.20
2018,08,06,08,32,17.30
2018,08,06,08,33,17.30
2018,08,06,08,34,17.40
2018,08,06,08,35,17.40
2018,08,06,08,36,17.40
2018,08,06,08,37,17.40
2018,08,06,08,38,17.40
2018,08,06,08,39,17.40
2018,08,06,08,40,17.50
2018,08,06,08,41,17.50
2018,08,06,08,42,17.50
2018,08,06,08,43,17.50
2018,08,06,08,44,17.50
2018,08,06,08,45,17.50
2018,08,06,08,46,17.50
2018,08,06,08,47,17.60
2018,08,06,08,48,17.60
2018,08,06,08,49,17.60
2018,08,06,08,50,17.70
2018,08,06,08,51,17.70
2018,08,06,08,52,17.80
2018,08,06,08,53,17.80
2018,08,06,08,54,17.90
2018,08,06,08,55,18.00
2018,08,06,08,56,18.00
2018,08,06,08,57,18.10
2018,08,06,08,58,18.20
2018,08,06,08,59,18.20
2018,08,06,09,00,18.30
2018,08,06,09,01,18.40
2018,08,06,09,02,18.50
2018,08,06,09,03,18.50
2018,08,06,09,04,18.60
2018,08,06,09,05,18.70
2018,08,06,09,06,18.80
2018,08,06,09,07,18.90
2018,08,06,09,08,19.00
2018,08,06,09,09,19.10
2018,08,06,09,10,19.20
2018,08,06,09,11,19.20
2018,08,06,09,12,19.30
2018,08,06,09,13,19.30
2018,08,06,09,14,19.30
2018,08,06,09,15,19.40
2018,08,06,09,16,19.40
2018,08,06,09,17,19.50
2018,08,06,09,18,19.50
2018,08,06,09,19,19.60
2018,08,06,09,20,19.60
2018,08,06,09,21,19.70
2018,08,06,09,22,19.70
2018,08,06,09,23,19.80
2018,08,06,09,24,19.80
2018,08,06,09,25,19.90
2018,08,06,09,26,20.00
2018,08,06,09,27,20.00
2018,08,06,09,28,20.10
2018,08,06,09,29,20.10
2018,08,06,09,30,20.10
2018,08,06,09,31,20.10
2018,08,06,09,32,20.10
2018,08,06,09,33,20.20
2018,08,06,09,34,20.20
2018,08,06,09,35,20.20
2018,08,06,09,36,20.30
2018,08,06,09,37,20.40
2018,08,06,09,38,20.40
2018,08,06,09,39,20.40
2018,08,06,09,40,20.40
2018,08,06,09,41,20.60
2018,08,06,09,42,20.70
2018,08,06,09,43,20.80
2018,08,06,09,44,20.80
2018,08,06,09,45,20.80
2018,08,06,09,46,20.80
2018,08,06,09,47,20.80
2018,08,06,09,48,20.90
2018,08,06,09,49,20.90
2018,08,06,09,50,20.90
2018,08,06,09,51,20.90
2018,08,06,09,52,21.00
2018,08,06,09,53,21.00
2018,08,06,09,54,21.10
2018,08,06,09,55,21.10
2018,08,06,09,56,21.20
2018,08,06,09,57,21.20
2018,08,06,09,58,21.30
2018,08,06,09,59,21.40
2018,08,06,10,00,21.40
2018,08,06,10,01,21.50
2018,08,06,10,02,21.60
2018,08,06,10,03,21.70
2018,08,06,10,04,21.70
2018,08,06,10,05,21.80
2018,08,06,10,06,21.80
2018,08,06,10,07,21.80
2018,08,06,10,08,21.80
2018,08,06,10,09,21.80
2018,08,06,10,10,21.80
2018,08,06,10,11,21.80
2018,08,06,10,12,21.80
2018,08,06,10,13,21.80
2018,08,06,10,14,21.80
2018,08,06,10,15,21.80
2018,08,06,10,16,21.80
2018,08,06,10,17,21.80
2018,08,06,10,18,21.80
2018,08,06,10,19,21.80
2018,08,06,10,20,21.90
2018,08,06,10,21,21.90
2018,08,06,10,22,22.00
2018,08,06,10,23,22.10
2018,08,06,10,24,22.10
2018,08,06,10,25,22.20
2018,08,06,10,26,22.30
2018,08,06,10,27,22.30
2018,08,06,10,28,22.40
2018,08,06,10,29,22.40
2018,08,06,10,30,22.40
2018,08,06,10,31,22.40
2018,08,06,10,32,22.50
2018,08,06,10,33,22.50
2018,08,06,10,34,22.60
2018,08,06,10,35,22.60
2018,08,06,10,36,22.70
2018,08,06,10,37,22.70
2018,08,06,10,38,22.80
2018,08,06,10,39,22.80
2018,08,06,10,40,22.90
2018,08,06,10,41,23.00
2018,08,06,10,42,23.20
2018,08,06,10,43,23.30
2018,08,06,10,44,23.40
2018,08,06,10,45,23.50
2018,08,06,10,46,23.60
2018,08,06,10,47,23.70
2018,08,06,10,48,23.80
2018,08,06,10,49,23.80
2018,08,06,10,50,23.70
2018,08,06,10,51,23.70
2018,08,06,10,52,23.70
2018,08,06,10,53,23.70
2018,08,06,10,54,23.60
2018,08,06,10,55,23.60
2018,08,06,10,56,23.60
2018,08,06,10,57,23.60
2018,08,06,10,58,23.50
2018,08,06,10,59,23.50
2018,08,06,11,00,23.60
2018,08,06,11,01,23.60
2018,08,06,11,02,23.70
2018,08,06,11,03,23.70
2018,08,06,11,04,23.80
2018,08,06,11,05,23.80
2018,08,06,11,06,23.80
2018,08,06,11,07,23.90
2018,08,06,11,08,23.90
2018,08,06,11,09,24.00
2018,08,06,11,10,24.00
2018,08,06,11,11,24.00
2018,08,06,11,12,23.90
2018,08,06,11,13,23.90
2018,08,06,11,14,23.80
2018,08,06,11,15,23.80
2018,08,06,11,16,23.80
2018,08,06,11,17,23.90
2018,08,06,11,18,24.00
2018,08,06,11,19,24.10
2018,08,06,11,20,24.20
2018,08,06,11,21,24.20
2018,08,06,11,22,24.30
2018,08,06,11,23,24.40
2018,08,06,11,24,24.50
2018,08,06,11,25,24.60
2018,08,06,11,26,24.70
2018,08,06,11,27,24.80
2018,08,06,11,28,24.80
2018,08,06,11,29,24.80
2018,08,06,11,30,24.80
2018,08,06,11,31,24.80
2018,08,06,11,32,24.80
2018,08,06,11,33,24.90
2018,08,06,11,34,25.00
2018,08,06,11,35,25.00
2018,08,06,11,36,25.20
2018,08,06,11,37,25.30
2018,08,06,11,38,25.30
2018,08,06,11,39,25.40
2018,08,06,11,40,25.50
2018,08,06,11,41,25.50
2018,08,06,11,42,25.40
2018,08,06,11,43,25.40
2018,08,06,11,44,25.30
2018,08,06,11,45,25.20
2018,08,06,11,46,25.20
2018,08,06,11,47,25.20
2018,08,06,11,48,25.20
2018,08,06,11,49,25.20
2018,08,06,11,50,25.20
2018,08,06,11,51,25.20
2018,08,06,11,52,25.20
2018,08,06,11,53,25.20
2018,08,06,11,54,25.20
2018,08,06,11,55,25.20
2018,08,06,11,56,25.20
2018,08,06,11,57,25.20
2018,08,06,11,58,25.20
2018,08,06,11,59,25.30
2018,08,06,12,00,25.30
2018,08,06,12,01,25.40
2018,08,06,12,02,25.40
2018,08,06,12,03,25.50
2018,08,06,12,04,25.60
2018,08,06,12,05,25.60
2018,08,06,12,06,25.70
2018,08,06,12,07,25.70
2018,08,06,12,08,25.80
2018,08,06,12,09,25.80
2018,08,06,12,10,25.80
2018,08,06,12,11,25.80
2018,08,06,12,12,25.80
2018,08,06,12,13,25.90
2018,08,06,12,14,25.90
2018,08,06,12,15,25.90
2018,08,06,12,16,25.90
2018,08,06,12,17,26.00
2018,08,06,12,18,26.10
2018,08,06,12,19,26.10
2018,08,06,12,20,26.20
2018,08,06,12,21,26.20
2018,08,06,12,22,26.30
2018,08,06,12,23,26.30
2018,08,06,12,24,26.40
2018,08,06,12,25,26.40
2018,08,06,12,26,26.40
2018,08,06,12,27,26.50
2018,08,06,12,28,26.60
2018,08,06,12,29,26.70
2018,08,06,12,30,26.70
2018,08,06,12,31,26.70
2018,08,06,12,32,26.70
2018,08,06,12,33,26.70
2018,08,06,12,34,26.80
2018,08,06,12,35,26.80
2018,08,06,12,36,26.80
2018,08,06,12,37,26.90
2018,08,06,12,38,26.90
2018,08,06,12,39,26.90
2018,08,06,12,40,27.00
2018,08,06,12,41,27.00
2018,08,06,12,42,27.00
2018,08,06,12,43,27.10
2018,08,06,12,44,27.10
2018,08,06,12,45,27.20
2018,08,06,12,46,27.30
2018,08,06,12,47,27.30
2018,08,06,12,48,27.30
2018,08,06,12,49,27.40
2018,08,06,12,50,27.40
2018,08,06,12,51,27.40
2018,08,06,12,52,27.40
2018,08,06,12,53,27.40
2018,08,06,12,54,27.40
2018,08,06,12,55,27.40
2018,08,06,12,56,27.50
2018,08,06,12,57,27.60
2018,08,06,12,58,27.80
2018,08,06,12,59,27.80
2018,08,06,13,00,27.80
2018,08,06,13,01,27.90
2018,08,06,13,02,28.00
2018,08,06,13,03,28.00
2018,08,06,13,04,28.10
2018,08,06,13,05,28.20
2018,08,06,13,06,28.20
2018,08,06,13,07,28.20
2018,08,06,13,08,28.20
2018,08,06,13,09,28.20
2018,08,06,13,10,28.30
2018,08,06,13,11,28.30
2018,08,06,13,12,28.30
2018,08,06,13,13,28.30
2018,08,06,13,14,28.30
2018,08,06,13,15,28.30
2018,08,06,13,16,28.20
2018,08,06,13,17,28.20
2018,08,06,13,18,28.30
2018,08,06,13,19,28.30
2018,08,06,13,20,28.30
2018,08,06,13,21,28.30
2018,08,06,13,22,28.30
2018,08,06,13,23,28.30
2018,08,06,13,24,28.40
2018,08,06,13,25,28.50
2018,08,06,13,26,28.50
2018,08,06,13,27,28.50
2018,08,06,13,28,28.60
2018,08,06,13,29,28.70
2018,08,06,13,30,28.60
2018,08,06,13,31,28.70
2018,08,06,13,32,28.70
2018,08,06,13,33,28.80
2018,08,06,13,34,28.80
2018,08,06,13,35,28.80
2018,08,06,13,36,28.80
2018,08,06,13,37,28.80
2018,08,06,13,38,28.80
2018,08,06,13,39,28.90
2018,08,06,13,40,28.90
2018,08,06,13,41,28.90
2018,08,06,13,42,28.90
2018,08,06,13,43,28.90
2018,08,06,13,44,28.90
2018,08,06,13,45,29.00
2018,08,06,13,46,29.00
2018,08,06,13,47,28.90
2018,08,06,13,48,28.90
2018,08,06,13,49,28.90
2018,08,06,13,50,29.00
2018,08,06,13,51,29.00
2018,08,06,13,52,29.10
2018,08,06,13,53,29.20
2018,08,06,13,54,29.20
2018,08,06,13,55,29.20
2018,08,06,13,56,29.30
2018,08,06,13,57,29.30
2018,08,06,13,58,29.20
2018,08,06,13,59,29.20
2018,08,06,14,00,29.20
2018,08,06,14,01,29.20
2018,08,06,14,02,29.20
2018,08,06,14,03,29.10
2018,08,06,14,04,29.10
2018,08,06,14,05,29.10
2018,08,06,14,06,29.10
2018,08,06,14,07,29.10
2018,08,06,14,08,29.10
2018,08,06,14,09,29.10
2018,08,06,14,10,29.10
2018,08,06,14,11,29.10
2018,08,06,14,12,29.10
2018,08,06,14,13,29.20
2018,08,06,14,14,29.20
2018,08,06,14,15,29.20
2018,08,06,14,16,29.20
2018,08,06,14,17,29.10
2018,08,06,14,18,29.10
2018,08,06,14,19,29.10
2018,08,06,14,20,29.10
2018,08,06,14,21,29.10
2018,08,06,14,22,29.20
2018,08,06,14,23,29.20
2018,08,06,14,24,29.20
2018,08,06,14,25,29.20
2018,08,06,14,26,29.20
2018,08,06,14,27,29.40
2018,08,06,14,28,29.50
2018,08,06,14,29,29.50
2018,08,06,14,30,29.40
2018,08,06,14,31,29.40
2018,08,06,14,32,29.40
2018,08,06,14,33,29.50
2018,08,06,14,34,29.60
2018,08,06,14,35,29.60
2018,08,06,14,36,29.60
2018,08,06,14,37,29.60
2018,08,06,14,38,29.60
2018,08,06,14,39,29.60
2018,08,06,14,40,29.60
2018,08,06,14,41,29.70
2018,08,06,14,42,29.70
2018,08,06,14,43,29.70
2018,08,06,14,44,29.60
2018,08,06,14,45,29.50
2018,08,06,14,46,29.40
2018,08,06,14,47,29.40
2018,08,06,14,48,29.40
2018,08,06,14,49,29.30
2018,08,06,14,50,29.20
2018,08,06,14,51,29.20
2018,08,06,14,52,29.20
2018,08,06,14,53,29.10
2018,08,06,14,54,29.10
2018,08,06,14,55,29.10
2018,08,06,14,56,29.20
2018,08,06,14,57,29.30
2018,08,06,14,58,29.30
2018,08,06,14,59,29.40
2018,08,06,15,00,29.40
2018,08,06,15,01,29.40
2018,08,06,15,02,29.40
2018,08,06,15,03,29.40
2018,08,06,15,04,29.40
2018,08,06,15,05,29.40
2018,08,06,15,06,29.40
2018,08,06,15,07,29.50
2018,08,06,15,08,29.50
2018,08,06,15,09,29.60
2018,08,06,15,10,29.50
2018,08,06,15,11,29.40
2018,08,06,15,12,29.40
2018,08,06,15,13,29.30
2018,08,06,15,14,29.30
2018,08,06,15,15,29.20
2018,08,06,15,16,29.10
2018,08,06,15,17,29.10
2018,08,06,15,18,29.00
2018,08,06,15,19,29.00
2018,08,06,15,20,29.00
2018,08,06,15,21,29.00
2018,08,06,15,22,29.00
2018,08,06,15,23,29.00
2018,08,06,15,24,29.00
2018,08,06,15,25,28.90
2018,08,06,15,26,28.90
2018,08,06,15,27,28.90
2018,08,06,15,28,28.90
2018,08,06,15,29,28.90
2018,08,06,15,30,28.80
2018,08,06,15,31,28.80
2018,08,06,15,32,28.80
2018,08,06,15,33,28.80
2018,08,06,15,34,28.80
2018,08,06,15,35,28.90
2018,08,06,15,36,28.90
2018,08,06,15,37,28.90
2018,08,06,15,38,28.90
2018,08,06,15,39,28.80
2018,08,06,15,40,28.90
2018,08,06,15,41,29.00
2018,08,06,15,42,29.00
2018,08,06,15,43,29.00
2018,08,06,15,44,29.00
2018,08,06,15,45,29.00
2018,08,06,15,46,29.00
2018,08,06,15,47,29.00
2018,08,06,15,48,29.10
2018,08,06,15,49,29.00
2018,08,06,15,50,28.90
2018,08,06,15,51,28.90
2018,08,06,15,52,28.90
2018,08,06,15,53,29.00
2018,08,06,15,54,29.00
2018,08,06,15,55,28.90
2018,08,06,15,56,28.90
2018,08,06,15,57,28.90
2018,08,06,15,58,28.90
2018,08,06,15,59,28.90
2018,08,06,16,00,28.90
2018,08,06,16,01,28.90
2018,08,06,16,02,29.00
2018,08,06,16,03,29.00
2018,08,06,16,04,29.10
2018,08,06,16,05,29.10
2018,08,06,16,06,29.10
2018,08,06,16,07,29.20
2018,08,06,16,08,29.20
2018,08,06,16,09,29.20
2018,08,06,16,10,29.20
2018,08,06,16,11,29.20
2018,08,06,16,12,29.20
2018,08,06,16,13,29.20
2018,08,06,16,14,29.20
2018,08,06,16,15,29.20
2018,08,06,16,16,29.10
2018,08,06,16,17,29.10
2018,08,06,16,18,29.20
2018,08,06,16,19,29.20
2018,08,06,16,20,29.20
2018,08,06,16,21,29.20
2018,08,06,16,22,29.20
2018,08,06,16,23,29.20
2018,08,06,16,24,29.20
2018,08,06,16,25,29.10
2018,08,06,16,26,29.00
2018,08,06,16,27,28.90
2018,08,06,16,28,28.90
2018,08,06,16,29,28.90
2018,08,06,16,30,28.90
2018,08,06,16,31,28.80
2018,08,06,16,32,28.80
2018,08,06,16,33,28.80
2018,08,06,16,34,28.80
2018,08,06,16,35,28.80
2018,08,06,16,36,28.80
2018,08,06,16,37,28.80
2018,08,06,16,38,28.80
2018,08,06,16,39,28.80
2018,08,06,16,40,28.80
2018,08,06,16,41,28.80
2018,08,06,16,42,28.80
2018,08,06,16,43,28.70
2018,08,06,16,44,28.70
2018,08,06,16,45,28.80
2018,08,06,16,46,28.80
2018,08,06,16,47,28.70
2018,08,06,16,48,28.70
2018,08,06,16,49,28.60
2018,08,06,16,50,28.60
2018,08,06,16,51,28.50
2018,08,06,16,52,28.60
2018,08,06,16,53,28.60
2018,08,06,16,54,28.60
2018,08,06,16,55,28.60
2018,08,06,16,56,28.60
2018,08,06,16,57,28.60
2018,08,06,16,58,28.50
2018,08,06,16,59,28.40
2018,08,06,17,00,28.40
2018,08,06,17,01,28.40
2018,08,06,17,02,28.40
2018,08,06,17,03,28.30
2018,08,06,17,04,28.30
2018,08,06,17,05,28.30
2018,08,06,17,06,28.30
2018,08,06,17,07,28.30
2018,08,06,17,08,28.20
2018,08,06,17,09,28.20
2018,08,06,17,10,28.10
2018,08,06,17,11,28.10
2018,08,06,17,12,28.10
2018,08,06,17,13,28.10
2018,08,06,17,14,28.00
2018,08,06,17,15,28.00
2018,08,06,17,16,27.90
2018,08,06,17,17,27.90
2018,08,06,17,18,27.90
2018,08,06,17,19,27.90